This is the latest recevied weather packets stored in our database for station/object AD7ZD. If no packets are shown the sender has not sent any weather packets the latest 10 day(s).
| Time | Temp. | Humidity | Pressure | Rain* | Wind** | Luminosity | Snow |
|---|---|---|---|---|---|---|---|
| 1777479267 | 11.67° C | 42% | 1018.4 hPa | 0 mm | - | 489 W/m² | - |
| 1777478963 | 12.22° C | 42% | 1018.4 hPa | 0 mm | - | 412 W/m² | - |
| 1777478660 | 11.67° C | 43% | 1018.5 hPa | 0 mm | - | 424 W/m² | - |
| 1777478356 | 11.67° C | 42% | 1018.4 hPa | 0 mm | - | 382 W/m² | - |
| 1777478053 | 11.11° C | 44% | 1018.5 hPa | 0 mm | - | 374 W/m² | - |
| 1777477749 | 10.56° C | 45% | 1018.7 hPa | 0 mm | - | 336 W/m² | - |
| 1777477445 | 11.11° C | 44% | 1018.8 hPa | 0 mm | - | 334 W/m² | - |
| 1777477142 | 10.56° C | 46% | 1018.7 hPa | 0 mm | - | 331 W/m² | - |
| 1777476839 | 9.44° C | 47% | 1018.5 hPa | 0 mm | - | 275 W/m² | - |
| 1777476536 | 10° C | 47% | 1018.5 hPa | 0 mm | - | 292 W/m² | - |
| 1777476232 | 10° C | 45% | 1018.6 hPa | 0 mm | - | 285 W/m² | - |
| 1777475928 | 10° C | 47% | 1018.6 hPa | 0 mm | - | 246 W/m² | - |
| 1777475624 | 9.44° C | 48% | 1018.6 hPa | 0 mm | - | 241 W/m² | - |
| 1777475321 | 8.89° C | 50% | 1018.4 hPa | 0 mm | - | 204 W/m² | - |
| 1777475016 | 8.33° C | 54% | 1018.8 hPa | 0 mm | - | 209 W/m² | - |
| 1777474713 | 7.78° C | 55% | 1018.8 hPa | 0 mm | - | 174 W/m² | - |
| 1777474409 | 7.22° C | 57% | 1018.6 hPa | 0 mm | - | 160 W/m² | - |
| 1777474106 | 6.67° C | 58% | 1018.8 hPa | 0 mm | - | 147 W/m² | - |
| 1777473804 | 6.67° C | 58% | 1018.7 hPa | 0 mm | - | 142 W/m² | - |
| 1777473501 | 7.22° C | 55% | 1018.7 hPa | 0 mm | - | 122 W/m² | - |
| 1777473196 | 7.22° C | 52% | 1018.5 hPa | 0 mm | - | 65 W/m² | - |
| 1777472893 | 7.22° C | 53% | 1018.6 hPa | 0 mm | - | 55 W/m² | - |
| 1777472589 | 6.67° C | 57% | 1018.6 hPa | 0 mm | - | 50 W/m² | - |
| 1777472286 | 5.56° C | 61% | 1018.6 hPa | 0 mm | - | 48 W/m² | - |
| 1777471983 | 5.56° C | 60% | 1018.6 hPa | 0 mm | - | 44 W/m² | - |
* Rain latest hour (hover to see other rain measurements)
** Current wind speed in m/s (hover to see current wind gust speed)